User: anonymous   Login
Location: Brno
(49.2000°N, 16.6330°E)
Time: 15:20:24
(UTC+02:00)
Language:

Iridium 2 - Orbit

View from above orbital plane
View from above orbital plane
View from above satellite
View from above satellite

Ground track
Ground track

The orbit data is extracted from the following two-line orbital elements,

1 25527U 98066A   16239.48233446  .00001323  00000-0  67790-4 0  9997
2 25527  85.5318 206.0477 0012148  92.4981 267.7649 15.15517589973229
Epoch (UTC): 26 August 2016 11:34:33
Eccentricity: 0.0012148
inclination: 85.5318°
perigee height: 511 km
apogee height: 528 km
right ascension of ascending node: 206.0477°
argument of perigee: 92.4981°
revolutions per day: 15.15517589
mean anomaly at epoch: 267.7649°
orbit number at epoch: 97322

The dashed part of the orbit path shows where the satellite is in the earth's shadow,  

DLR